Location: Sungai Dangang
(2.7500°N, 113.8333°E)
Time: 23:03:30
(UTC+00:00)

Ariane H10+ - Pass Details

Date: 16 May 2021
Orbit: 240 x 7928 km, 6.8° (Epoch: 15 June)

Event Time Altitude Azimuth Distance (km) Brightness Sun altitude
Rises 18:07:30 0° 272° (W) 12,532 7.9 -55.8°
Reaches altitude 10° 18:20:55 10° 270° (W) 10,630 7.5 -53.2°
Enters shadow 18:22:03 11° 269° (W) 10,442 7.4 -53.0°
Exits shadow 19:01:14 49° 137° (SE) 2,605 4.5 -44.9°
Drops below altitude 10° 19:06:51 10° 111° (ESE) 3,418 5.6 -43.7°
Sets 19:08:45 0° 107° (ESE) 3,953 6.1 -43.3°
